Flag for Isle of Man Weather past 2 weeks in Ramsey, Isle of Man

55 °F

Passing clouds.

Feels Like: 52 °F
Forecast: 51 / 57 °F
Wind: 15 mph from Southeast

Location: Isle Of Man / Ronaldsway Airport

Current Time: Oct 10, 2015 at 9:23:45 PM

Latest Report: Oct 10, 2015 at 8:50 PM

Visibility: N/A

Pressure: 30.12 "Hg

Humidity: 77%

Dew point: 48 °F

Location of RamseyLocation

Historic Weather in Ramsey — Graph


Ramsey temperature yesterday

Maximum temperature yesterday: 59 °F (at 10:50 AM)
Minimum temperature yesterday: 52 °F (at 9:20 PM)
Average temperature yesterday: 56 °F

Past Weeks' High & Low Weather Summary

High63 °F (Oct 6, 12:50 PM)100% (Sep 26, 11:50 PM)30.63 "Hg (Sep 26, 11:50 PM)
Low43 °F (Oct 3, 5:50 AM)59% (Sep 26, 5:20 PM)29.33 "Hg (Oct 6, 4:50 AM)
Average56 °F84%30.16 "Hg
* Reported Sep 25 8:20 PM — Oct 10 8:20 PM, Ramsey, Weather by CustomWeather, © 2015

Note: Actual official high and low records may vary slightly from our data, if they occured in-between our weather recording intervals... More about our weather records


Ramsey weather history for previous 24 hours

Time TempWeatherWind HumidityBarometerVisibility
8:20 PM
Sat, Oct 10
55 °FPassing clouds.14 mph77%30.12 "HgN/A
7:50 PM55 °FPassing clouds.14 mph77%30.12 "HgN/A
7:20 PM55 °FScattered clouds.13 mph77%30.12 "HgN/A
6:20 PM55 °FPartly sunny.8 mph77%30.12 "HgN/A
5:50 PM55 °FSunny.8 mph77%30.12 "Hg10 mi
5:20 PM55 °FSunny.10 mph77%30.12 "Hg10 mi
4:20 PM55 °FPassing clouds.12 mph77%30.12 "HgN/A
3:50 PM57 °FPassing clouds.12 mph72%30.15 "HgN/A
3:20 PM57 °FPassing clouds.12 mph72%30.15 "HgN/A
2:50 PM57 °FPassing clouds.12 mph77%30.15 "HgN/A
2:20 PM57 °FPassing clouds.12 mph77%30.15 "HgN/A
1:50 PM57 °FPassing clouds.12 mph82%30.15 "HgN/A
1:20 PM57 °FPassing clouds.13 mph82%30.15 "HgN/A
12:50 PM57 °FPassing clouds.14 mph82%30.15 "HgN/A
12:20 PM57 °FPassing clouds.14 mph82%30.18 "HgN/A
11:50 AM57 °FPassing clouds.13 mph82%30.18 "HgN/A
11:20 AM57 °FPassing clouds.14 mph82%30.18 "HgN/A
10:50 AM57 °FPassing clouds.13 mph82%30.18 "HgN/A
10:20 AM57 °FPassing clouds.13 mph82%30.18 "HgN/A
9:50 AM57 °FPassing clouds.12 mph88%30.18 "HgN/A
9:20 AM55 °FPassing clouds.9 mph88%30.18 "HgN/A
8:50 AM55 °FPassing clouds.8 mph88%30.18 "HgN/A
8:20 AM55 °FPassing clouds.8 mph88%30.18 "HgN/A
7:50 AM55 °FPassing clouds.7 mph88%30.18 "HgN/A
7:20 AM54 °FPassing clouds.3 mph94%30.15 "HgN/A
6:50 AM54 °FPassing clouds.5 mph94%30.15 "HgN/A
6:20 AM54 °FPassing clouds.5 mph94%30.15 "HgN/A
5:50 AM54 °FClear.6 mph94%30.15 "Hg10 mi
5:20 AM54 °FPassing clouds.6 mph94%30.18 "HgN/A
4:50 AM54 °FClear.7 mph100%30.18 "Hg10 mi
3:50 AM55 °FClear.6 mph94%30.18 "Hg10 mi
2:50 AM54 °FClear.7 mph94%30.18 "Hg10 mi
1:50 AM54 °FClear.6 mph94%30.18 "Hg10 mi
12:50 AM54 °FPassing clouds.6 mph94%30.18 "HgN/A
11:50 PM
Fri, Oct 9
54 °FClear.5 mph94%30.18 "Hg10 mi
10:50 PM54 °FClear.5 mph94%30.18 "Hg10 mi
9:50 PM52 °FClear.3 mph100%30.18 "Hg10 mi
9:20 PM52 °FPassing clouds.3 mph100%30.18 "HgN/A
Weather by CustomWeather, © 2015

See weather overviewHow to use our weather pages